EW9842 Weather Reports


Display with metric or nautical units.
time (UTC)temp
F
wind
direction
speed
MPH
gust
MPH
rain 1hr
in
rain 24hr
in
rain mn
in
humidity
%
barometer
mb
20260904020035 53 286 1.0 3.0 0.00 0.10 0.00 87 1013.2
20260904014641 54 294 2.0 5.0 0.00 0.13 0.00 86 1013.1
20260904011536 54 291 3.0 8.0 0.00 0.14 0.00 86 1013.1
20260904010110 54 285 3.0 6.0 0.00 0.16 0.00 84 1013.1
20260904004535 55 286 3.0 8.0 0.00 0.18 0.00 81 1013.0
20260904000037 57 345 2.0 7.0 0.00 0.23 0.00 74 1012.9
20260903234546 57 343 5.0 11.0 0.00 0.26 0.00 75 1013.0
20260903234535 56 5 4.0 9.0 0.00 0.26 0.00 77 1013.2
20260903224611 60 321 5.0 10.0 0.00 0.27 0.00 65 1013.1
20260903223029 63 312 5.0 12.0 0.00 0.28 0.00 62 1013.1
20260903221610 62 290 3.0 8.0 0.00 0.28 0.00 66 1013.0
20260903220035 61 298 1.0 5.0 0.00 0.28 0.00 67 1013.1
20260903214534 61 286 3.0 6.0 0.00 0.31 0.00 68 1013.1
20260903211611 60 281 4.0 10.0 0.00 0.34 0.00 69 1013.2
20260903210036 62 317 5.0 9.0 0.00 0.35 0.00 67 1013.3
20260903203033 59 296 6.0 13.0 0.00 0.39 0.00 73 1013.3
20260903201535 58 291 5.0 10.0 0.00 0.41 0.00 75 1013.5
20260903200035 59 290 4.0 10.0 0.00 0.41 0.00 72 1013.5
20260903194535 60 292 5.0 13.0 0.00 0.41 0.00 72 1013.6
20260903190035 59 350 4.0 8.0 0.00 0.41 0.00 73 1014.1
20260903183034 59 338 3.0 8.0 0.00 0.41 0.00 70 1014.1
20260903181538 59 263 3.0 8.0 0.00 0.41 0.00 71 1014.1
20260903180037 55 335 3.0 9.0 0.00 0.41 0.00 82 1014.2
20260903173031 54 318 3.0 8.0 0.00 0.41 0.00 87 1014.2
20260903171533 53 326 1.0 5.0 0.00 0.41 0.00 91 1014.3
20260903170033 51 11 2.0 5.0 0.00 0.41 0.00 93 1014.2
20260903164534 50 304 1.0 6.0 0.00 0.41 0.00 95 1014.3
20260903163033 49 283 0.0 4.0 0.00 0.41 0.00 96 1014.1
20260903161533 49 287 0.0 2.0 0.00 0.41 0.00 96 1014.2
20260903160043 49 337 0.0 4.0 0.00 0.41 0.00 97 1014.3
20260903153035 47 243 1.0 6.0 0.00 0.41 0.00 98 1014.2
20260903151530 46 24 1.0 7.0 0.00 0.41 0.00 98 1014.2
20260903150031 46 145 3.0 10.0 0.00 0.41 0.00 98 1014.3
20260903143032 45 115 1.0 7.0 0.00 0.41 0.00 98 1014.0
20260903141533 45 127 1.0 6.0 0.00 0.41 0.00 98 1013.9
20260903140033 44 136 4.0 10.0 0.00 0.41 0.00 98 1013.6
20260903133032 44 102 3.0 6.0 0.00 0.41 0.00 98 1013.6
20260903130036 43 121 2.0 5.0 0.00 0.41 0.00 98 1013.4
20260903124534 44 142 2.0 6.0 0.00 0.41 0.00 98 1013.4
20260903123033 43 114 1.0 4.0 0.00 0.41 0.00 98 1013.6
20260903121530 43 120 2.0 5.0 0.00 0.41 0.00 98 1013.5
20260903120035 44 196 2.0 7.0 0.00 0.41 0.00 98 1013.4
20260903114536 44 120 3.0 10.0 0.00 0.41 0.00 98 1013.5
20260903113036 43 133 3.0 8.0 0.00 0.41 0.00 98 1013.6
20260903111535 42 135 3.0 5.0 0.00 0.41 0.00 98 1013.5
20260903110035 42 107 1.0 5.0 0.00 0.41 0.00 98 1013.3
20260903104536 42 154 2.0 7.0 0.00 0.41 0.00 98 1013.1
20260903103033 42 171 2.0 6.0 0.00 0.41 0.00 98 1013.0
20260903101534 43 130 1.0 4.0 0.00 0.41 0.00 97 1013.0
20260903094535 43 139 1.0 3.0 0.00 0.41 0.00 97 1013.2
20260903093036 44 163 2.0 7.0 0.00 0.41 0.00 97 1013.0
20260903091535 44 134 3.0 8.0 0.00 0.41 0.00 97 1012.9
20260903090035 43 145 2.0 4.0 0.00 0.41 0.00 97 1013.3
20260903084533 43 155 2.0 4.0 0.00 0.41 0.00 97 1013.2
20260903083152 44 183 1.0 4.0 0.00 0.41 0.00 97 1013.1
20260903081535 44 145 2.0 5.0 0.00 0.41 0.00 96 1013.1
20260903074537 44 161 2.0 4.0 0.00 0.41 0.00 96 1012.8
20260903073036 45 192 1.0 5.0 0.00 0.41 0.00 95 1012.6
20260903071534 45 111 2.0 6.0 0.00 0.41 0.00 95 1012.7
20260903070035 46 104 1.0 4.0 0.00 0.41 0.00 94 1012.7
20260903064533 46 17 0.0 4.0 0.00 0.41 0.41 94 1012.7
20260903061536 48 333 6.0 11.0 0.00 0.41 0.41 94 1012.7
20260903060144 48 344 5.0 10.0 0.00 0.41 0.41 94 1012.7
20260903054536 48 13 5.0 11.0 0.00 0.41 0.41 94 1012.7
20260903053143 48 32 2.0 9.0 0.00 0.41 0.41 94 1012.6
20260903051533 49 342 4.0 7.0 0.00 0.41 0.41 94 1012.4
20260903050031 49 26 4.0 8.0 0.00 0.41 0.41 94 1012.5
20260903043109 49 6 3.0 8.0 0.00 0.41 0.41 93 1012.2
20260903041609 50 259 2.0 11.0 0.00 0.41 0.41 93 1012.2
20260903040034 50 246 4.0 15.0 0.00 0.41 0.41 95 1011.8
20260903034530 50 260 1.0 6.0 0.01 0.41 0.41 96 1011.9
20260903033036 51 340 2.0 5.0 0.03 0.41 0.41 96 1011.9
20260903031651 52 290 0.0 4.0 0.06 0.41 0.40 95 1011.9
20260903024536 53 245 1.0 7.0 0.12 0.40 0.38 95 1011.8
20260903023029 54 77 2.0 6.0 0.10 0.38 0.35 96 1011.8
20260903021534 54 226 0.0 4.0 0.08 0.35 0.31 96 1011.7